{"data":{"norad_id":49336,"intl_designator":"2021-096A","name":"QZS-1R (QZSS/PRN 196)","alt_names":[],"object_type":"PAYLOAD","status":"ACTIVE","operator":null,"country":"JPN","launch_date":"2021-10-26","launch_site_code":"TANSC","launch_vehicle":null,"mission":null,"orbit_class":"UNKNOWN","rcs_meters":null,"size_class":null,"mass_kg":null,"dimensions":null,"purposes":["comms","nav"],"wikipedia_slug":null,"has_3d_model":false,"image_url":null,"decayed_at":null,"tle_current":{"epoch":"2026-05-24T16:22:25.859136Z","epoch_age_seconds":105722,"freshness":"FRESH","line1":"1 49336U 21096A   26144.68224374 -.00000265  00000+0  00000+0 0  9998","line2":"2 49336  37.4165  79.9290 0753260 271.3756 271.7509  1.00263785 16777","mean_motion":1.00263785,"eccentricity":0.075326,"inclination_deg":37.4165,"raan_deg":79.929,"arg_perigee_deg":271.3756,"mean_anomaly_deg":271.7509,"bstar":0,"rev_number":1677,"period_min":1436.2114895224,"perigee_km":32612.568256878,"apogee_km":38965.107344556,"semimajor_km":42166.974800717,"source":"CELESTRAK","updated_at":"2026-05-25T13:38:24.345039Z"}}}